Regional Weather Roundup
Issued by NWS Pendleton, OR

Home | Current Version | Previous Version | Text Only | Print | Product List | Glossary On
Versions: 1 2 3 4 5 6 7 8 9 10 11 12 13 14 15 16 17 18 19 20 21 22 23 24 25 26 27 28 29 30 31 32 33 34 35 36 37 38 39 40 41 42 43 44 45 46 47 48 49 50
000
ASUS46 KPDT 260425
RWRPDT
PENDLETON REGIONAL WEATHER ROUNDUP
NATIONAL WEATHER SERVICE PENDLETON OREGON
900 PM PDT TUE APR 25 2017

NOTE: FAIR INDICATES FEW OR NO CLOUDS BELOW 12,000 FEET WITH NO
SIGNIFICANT WEATHER AND/OR OBSTRUCTIONS TO VISIBILITY.

# INDICATES UNOFFICIAL STATION AND DATA

WAZ520-260510-
EAST SLOPES OF WASHINGTON CASCADES

CITY            SKY/WX      TMP DP  RH  WIND    PRES   REMARKS
#CLE ELUM HS    N/A         44  40  86  CALM    29.74S
#CLE ELUM LAKE  N/A         40  37  89  CALM    29.76S
#GLENWOOD       N/A         43  41  93  CALM    29.84S
#MANASTASH CYN  N/A         50  50  100 CALM    29.76S
#NELSON 3SW     N/A         37  35  92  CALM    29.98S
#NILE           N/A         46  37  71  CALM    29.05S
#TEANAWAY 4NE   N/A         45  42  89  CALM    N/A
#TROUT LAKE 1NE N/A         42  41  96  CALM    29.83F
#TROUT LAKE 1E  N/A         42  40  93  CALM    29.84F
$$

WAZ521-260510-
SIMCOE HIGHLANDS

CITY            SKY/WX      TMP DP  RH  WIND    PRES   REMARKS
#BICKLETON HS   N/A         42  41  96  S7      29.44F
#CENTERVILLE 1SWN/A         45  40  82  CALM    29.79F
#GOLDENDALE 1NE N/A         46  38  73  N3      N/A
#GOLDENDALE 4W  N/A         45  32  60  NE5     29.86F
#GOODNOE HILLS  N/A         50  42  74  W7      N/A
#LYLE 6NE       N/A         45  43  93  NE3     29.80S
#PITT 4SE       N/A         44  41  89  CALM    29.86S
$$

WAZ026-260510-
KITTITAS VALLEY

CITY            SKY/WX      TMP DP  RH  WIND    PRES   REMARKS
ELLENSBURG AP   LGT RAIN    51  36  56  S5      29.77S
#ELLENSBURG CWU N/A         50  39  66  SE5     29.70S
#ELLENSBURG 3NE N/A         49  40  71  CALM    27.86S
#ELLENSBURG 1E  N/A         49  N/A N/A CALM    N/A
#ELLENSBURG 13S N/A         51  38  61  E10     N/A
#KITTITAS 4N    N/A         48  38  68  S1      29.80R
#KITTITAS 3S    N/A         49  39  68  S7      29.75S
#THORP 6N       N/A         45  38  76  CALM    29.79S
$$

WAZ027-260510-
YAKIMA VALLEY

CITY            SKY/WX      TMP DP  RH  WIND    PRES   REMARKS
SUNNYSIDE AP    LGT RAIN    47  45  93  E5      29.83R
YAKIMA AIRPORT  CLOUDY      53  39  59  S22G30  29.79R
YAKIMA-VAGABOND MOCLDY      49  37  63  SW13G24 29.77S WCI 44
#DONALD 2NE     N/A         49  29  46  CALM    28.67R
#GRANDVIEW      N/A         50  41  71  CALM    29.84S
#MABTON         N/A         54  43  66  SW3     29.82S
#MOXEE 2E       N/A         49   0  13  S8      29.76R
#NACHES 2SW     N/A         49  40  71  SW2     29.77F
#TERRACE HTS    N/A         49  39  68  CALM    29.78R
#TOPPENISH      N/A         52  41  66  CALM    29.73S
#WEST VALLEY    N/A         49  38  66  SW8     29.77R
#W YAKIMA       N/A         49  39  68  S2      29.79R
#WHITE SWAN 5E  N/A         50  41  71  CALM    29.81S
#WILEY CITY 3W  N/A         48  36  63  S9      29.74F
$$

WAZ028-260510-
LOWER COLUMBIA BASIN...WASHINGTON

CITY            SKY/WX      TMP DP  RH  WIND    PRES   REMARKS
PASCO           LGT RAIN    55  40  57  SW14G24 29.84R
PROSSER AWOS    N/A         52  43  71  N5      29.86S
RICHLAND AWOS   RAIN        53  44  71  S14     29.83R
#BENTON CITY    N/A         50  42  74  W2      29.73S
#CONNELL 5N     N/A         49  39  68  S1      29.80S
#CONNELL 5NW    N/A         50  39  66  SW8     29.75S
#ELTOPIA 6NW    N/A         53  39  59  W12G25  28.78S
#KAHLOTUS       N/A         51  38  61  W14     29.80S
#KENNEWICK 3S   N/A         51  42  71  SW7     29.83R
#PATERSON       N/A         52  44  74  CALM    29.82S
#SAGEMOOR 2W    N/A         52  40  63  SW13    29.68R
#TOUCHET 2S     N/A         52  45  77  SW3     29.82R
#WEST PASCO     N/A         55  41  59  SW6     29.83R
$$

WAZ029-260510-
FOOTHILLS OF THE BLUES...WASHINGTON

CITY            SKY/WX      TMP DP  RH  WIND    PRES   REMARKS
WALLA WALLA AP  LGT RAIN    53  44  71  S9      29.85R
#CLYDE 6NW      N/A         52  38  59  SW8     29.81R
#DAYTON SCHOOL  N/A         51  36  56  S7      29.86R
#LOWDEN 2SE     N/A         51  47  86  SE3     29.81R
#PLEASANT VIEW 1N/A         48  39  71  S6      29.85S
#PRESCOTT       N/A         52  43  71  CALM    29.82R
#WHITMAN COLLEGEN/A         51  46  83  SE3     29.89R
#WAITSBURG 5S   N/A         48  42  80  S6      29.95R
#WALLA WALLA 5E N/A         50  45  83  S6      N/A
#WHITMAN MISSIONN/A         52  47  83  CALM    29.86R
$$

WAZ030-260510-
BLUE MOUNTAINS...WASHINGTON

CITY            SKY/WX      TMP DP  RH  WIND    PRES   REMARKS
#DIXIE 5SE      N/A         43  38  82  S7      29.77R
$$

ORZ009-041-WAZ024-260510-
COLUMBIA RIVER GORGE

CITY            SKY/WX      TMP DP  RH  WIND    PRES   REMARKS
THE DALLES AP   CLOUDY      51  48  89  NW7     29.83S
#ARLINGTON AIRPON/A         50  44  80  CALM    29.84F
#CELILO DOT     N/A         52  43  71  CALM    N/A
#LYLE           N/A         51  49  93  N3      29.85S
#MOSIER 1S      N/A         48  41  77  CALM    29.82S
#MURDOCK        N/A         51  48  89  NW6     29.79S
#RUFUS DOT      N/A         54  46  74  CALM    N/A
#SMITHVILLE     N/A         51  48  89  NW6     29.77F

$$

ORZ510-260510-
NORTH CENTRAL OREGON

CITY            SKY/WX      TMP DP  RH  WIND    PRES   REMARKS
#ANTELOPE       N/A         45  40  82  NE2     29.73F
#CHENOWITH 1W   N/A         45  43  93  E5      N/A
#COW CYN RST AREN/A         45  41  86  S6      N/A
#DUFUR          N/A         47  43  86  CALM    29.78F
#DUFUR 9E       N/A         45  41  86  S16     29.87F WCI 38
#GRASS VALLEY 1SN/A         44  41  89  CALM    29.97S
#KENT DOT       N/A         45  37  73  N8      N/A
#MAUPIN SCHOOL  N/A         50  45  83  CALM    29.87S
#MORO SCHOOL    N/A         47  46  96  S2      29.90F
#SHANIKO 4NW    N/A         42  38  86  S15     29.81S WCI 34
#TYGH VALLEY 2NEN/A         48  44  86  CALM    29.81F
#WAPANITIA AIRPON/A         46  43  89  CALM    29.85S
#WASCO 5NE      N/A         47  43  86  CALM    29.82F
$$

ORZ511-260510-
CENTRAL OREGON

CITY            SKY/WX      TMP DP  RH  WIND    PRES   REMARKS
BEND AIRPORT    MOCLDY      48  39  71  S16     29.84S WCI 42
MADRAS AIRPORT  PTCLDY      46  37  71  S13     29.85S WCI 40
PRINEVILLE AP   CLOUDY      48  39  71  SE5     29.85S
REDMOND AIRPORT PTCLDY      45  37  73  SE6     29.84S
#ASHWOOD SCHOOL N/A         48  40  74  S7      29.81S
#BEND 1SW       N/A         45  41  86  SW6     N/A
#BEND-AWBREY    N/A         46  41  83  S7      29.86S
#BEND-KIM LN    N/A         46  40  79  E6      29.80S
#CULVER         N/A         48  40  74  S3      29.78S
#CULVER 8W      N/A         49  40  71  SW7     29.86S
#LAKE BILLY CHINN/A         49  N/A N/A S10     29.91F
#MADRAS 4S      N/A         49  10  20  S10     29.93R
#POWELL BUTTE   N/A         48  40  74  S12     29.82R WCI 43
#PRINEVILLE     N/A         48  40  74  E1      29.96S
#PRINEVILLE 3N  N/A         45  41  86  NE1     29.87S
#WARM SPRINGS   N/A         47  41  79  CALM    29.79F

$$


ORZ509-260510-
EAST SLOPES OF OREGON CASCADES

CITY            SKY/WX      TMP DP  RH  WIND    PRES   REMARKS
SISTERS AWOS    N/A         48  39  71  W8      29.81R
#BLUE BOX PASS  N/A         38  N/A N/A NW3     N/A
#CAMP SHERMAN   N/A         45  41  86  SE1     29.89S
#LA PINE 4NW    N/A         41  37  86  CALM    29.96S
#LAVA BUTTE DOT N/A         41  38  89  SE2     N/A
#SISTERS 3N     N/A         44  36  73  W2      29.85S
#TUMALO 3W      N/A         46  38  73  SE1     29.75R
#WANOGA BUTTE D N/A         38  36  92  W23     N/A    WCI 27

$$

ORZ044-260510-
LOWER COLUMBIA BASIN...OREGON

CITY            SKY/WX      TMP DP  RH  WIND    PRES   REMARKS
HERMISTON       LGT RAIN    52  48  86  SW7     29.84R
#BOARDMAN SCHOOLN/A         52  46  80  CALM    29.83S
#BOARDMAN 8SW   N/A         52  46  80  W1      29.83S
#ECHO 8SW       N/A         50  45  83  CALM    29.85S
#I-84 EX 198 DOTN/A         51  46  83  NE8     N/A
#IONE SCHOOL    N/A         52  33  48  CALM    29.84F
$$

ORZ507-260510-
NORTHERN FOOTHILLS OF THE BLUES

CITY            SKY/WX      TMP DP  RH  WIND    PRES   REMARKS
PENDLETON AIRPT LGT RAIN    49  47  93  S5      29.85R
#ADAMS 3WNW     N/A         47  44  89  CALM    29.85S
#ATHENA         N/A         48  45  89  S1      29.88R
#CAYUSE         N/A         49  44  83  SE3     29.85R
#HELIX SCHOOL   N/A         48  45  89  S7      29.85R
#HELIX 3N       N/A         47  44  89  S12     29.82R WCI 42
#HOLDMAN 5SE    N/A         49  46  89  CALM    29.85R
#HOLDMAN 6E     N/A         47  44  89  SE5     29.66R
#M-F FERNDALE   N/A         51  43  74  CALM    29.83R
#M-F GROVE ELEM N/A         50  44  80  CALM    29.83R
#M-FREEWATER 5SEN/A         49  44  83  CALM    29.85R
#PENDLETON DNTN N/A         52  40  63  SW3     29.86R
#PDT AQUATIC CTRN/A         51  43  74  S2      29.88S
#PDT SUNRIDGE   N/A         50  47  89  S2      29.87R
#PENDLETON 7NW  N/A         52  46  80  CALM    31.51S
#PILOT ROCK 1S  N/A         47  38  71  S8      29.86R
#PILOT ROCK     N/A         47  42  83  SW6     29.87S
#TUTUILLA       N/A         49  45  86  S1      29.85S
#UMAPINE 2E     N/A         51  48  89  CALM    29.82R
#WESTON SCHOOL  N/A         47  41  79  SW2     29.86R

$$

ORZ508-260510-
SOUTHERN FOOTHILLS OF THE BLUES

CITY            SKY/WX      TMP DP  RH  WIND    PRES   REMARKS
LEXINGTON       CLOUDY      48  46  93  SE7     29.86F
#AJAX           N/A         48  35  60  S7      29.97F
#CONDON SCHOOL  N/A          0  -78  1  CALM    29.78F
#CONDON 5W      N/A         42  37  82  S9      29.78F
#HEPPNER EOC    N/A         47  40  76  SE1     29.78S
#LEXINGTON 2SE  N/A         50  43  77  SW3     29.80S
#MIKKALO        N/A         49  40  71  SE5     29.92F
#OLEX 4N        N/A         51  45  80  CALM    29.82S
#RUGGS 5NE      N/A         44  40  86  S7      30.01S
#RUGGS 2SW      N/A         44  39  82  S7      29.86S

$$

ORZ502-503-260510-
BLUE MOUNTAINS

CITY            SKY/WX      TMP DP  RH  WIND    PRES   REMARKS
MEACHAM         LGT RAIN    41  36  82  CALM    29.86R
#BATTLE MTN DOT N/A         37  35  92  S8      N/A
#GREENHORN 9SW  N/A         39  36  89  CALM    26.10S
#HARDMAN 10S    N/A         37  35  92  SE5     30.01R
#LADD CYN SMT   N/A         43  39  86  NW3     N/A
#LADD CREEK ODOTN/A         43  40  89  S3      N/A
#LONG CREEK HS  N/A         40  39  96  CALM    N/A
#N POWDER DOT   N/A         47  37  68  NW1     N/A
#PIKES PEAK     N/A         41  39  93  N15     27.99S WCI 33
#TOLLGATE       N/A         35  34  96  S1      29.72R
#TROY SCHOOL    N/A         51  44  77  CALM    29.66S
#UKIAH          N/A         40  37  89  CALM    29.80R
#WESTON 4E      N/A         42  41  96  SE2     29.84S
$$

ORZ505-260510-
JOHN DAY BASIN

CITY            SKY/WX      TMP DP  RH  WIND    PRES   REMARKS
JOHN DAY        LGT DRIZZLE 43  37  79  CALM    29.90R
#ANTELOPE 9ESE  N/A         50  44  80  S1      N/A
#DAYVILLE SCHOOLN/A         47  36  65  SE3     29.86R
#MITCHELL       N/A         47  41  79  CALM    30.01S
#MITCHELL 8NW   N/A         44  37  76  SW5     29.88S
#MONUMENT HS    N/A         47  42  83  CALM    29.85R
#MT. VERNON 5SE N/A         39  35  85  CALM    29.84R
#SPRAY SCHOOL   N/A         48  N/A N/A CALM    N/A
$$

ORZ506-260510-
OCHOCO AND JOHN DAY HIGHLANDS

CITY            SKY/WX      TMP DP  RH  WIND    PRES   REMARKS
#HORSE RIDGE DO N/A         45  36  70  SE2     N/A
#PAULINA ODOT   N/A         43  40  89  SW6     N/A
#PINE MTN OBS   N/A         36  34  92  SW5     N/A
#PRAIRIE CITY   N/A         42  36  79  CALM    30.05R
#SENECA 9NW     N/A         36  33  89  CALM    29.92R
$$

ORZ049-260510-
GRANDE RONDE VALLEY

CITY            SKY/WX      TMP DP  RH  WIND    PRES   REMARKS
LA GRANDE       CLOUDY      46  37  71  NW14    29.84S WCI 40
#COVE           N/A         46  42  86  CALM    29.90R
#COVE SCHOOL    N/A         46  40  79  CALM    29.88R
#COVE 6NW       N/A         46  41  83  W2      29.87R
#ELGIN 3N       N/A         46  39  76  CALM    29.84R
#ELGIN 1E       N/A         47  39  74  CALM    N/A
#IMBLER SCHOOL  N/A         45  39  79  CALM    29.82R
#ISLAND CITY 4N N/A         51  50  96  CALM    29.84R
#UNION 1S       N/A         47  40  76  N2      29.85S
$$

ORZ050-260510-
WALLOWA COUNTY

CITY            SKY/WX      TMP DP  RH  WIND    PRES   REMARKS
JOSEPH AIRPORT  CLOUDY      41  37  86  CALM    29.84F
#IMNAHA SCHOOL  N/A         50  44  80  CALM    29.83S
#IMNAHA 10S     N/A         47  41  79  CALM    29.84S
#JOSEPH 3N      N/A         41  34  76  CALM    29.88S
#JOSEPH 3W      N/A         N/A N/A N/A CALM    29.70F
#LOSTINE        N/A         43  37  79  CALM    29.66R
#LOSTINE 3SE    N/A         43  37  79  CALM    29.87F
#MT HOWARD 8000 N/A         26  22  85  CALM    29.81F
#PROMISE 1S     N/A         44  36  73  SW5     29.93S
#WALLOWA SCHOOL N/A         46  39  76  CALM    29.82R



$$



USA.gov is the U.S. government's official web portal to all federal, state and local government web resources and services.